Location: Newark
(49.8969°N, 3.3422°E)
Time: 20:59:19
(UTC+00:00)

Vanguard 1 Rocket - Pass Details

Date: 26 January 2020
Orbit: 650 x 4226 km, 34.3° (Epoch: 26 February)

Event Time Altitude Azimuth Distance (km) Brightness Sun altitude
Rises 08:42:20 0° 210° (SSW) 3,784 10.8 8.7°
Reaches altitude 10° 08:45:11 10° 194° (SSW) 3,173 10.7 9.1°
Maximum altitude 08:51:15 23° 145° (SE) 3,043 12.0 9.8°
Drops below altitude 10° 09:00:34 10° 101° (E) 5,111 12.2 10.8°
Sets 09:06:56 0° 90° (E) 6,824 12.5 11.5°
